"read_dt","SO2 (ppb)","flags","PMT voltage (V)","lamp voltage (V)","lamp intensity (Hz)","internal temp (C)","react chamber temp (C)","sample flow (l/min)","pres (mmHg)","SO2 bkg (ppb)","SO2 coefficient"
2016-04-29 00:00:00,1940E-3,5C000400,-0724,0835,12091,029.9,045.5,0.252,751.3,01.17,0.508
2016-04-29 00:01:00,1951E-3,5C000400,-0724,0835,12119,029.9,045.5,0.252,751.3,01.17,0.508
2016-04-29 00:02:00,1910E-3,5C000400,-0724,0835,12255,029.9,045.5,0.252,751.3,01.17,0.508
2016-04-29 00:03:00,1818E-3,5C000400,-0724,0835,12124,029.9,045.5,0.252,751.3,01.17,0.508
2016-04-29 00:04:00,1914E-3,5C000400,-0724,0835,12273,030.0,045.5,0.252,751.3,01.17,0.508
2016-04-29 00:05:00,1791E-3,5C000400,-0724,0835,12099,029.9,045.5,0.252,751.2,01.17,0.508
2016-04-29 00:06:00,1986E-3,5C000400,-0724,0836,12169,029.9,045.5,0.252,751.3,01.17,0.508
2016-04-29 00:07:00,1830E-3,5C000400,-0724,0835,12152,030.0,045.5,0.252,751.3,01.17,0.508
2016-04-29 00:08:00,1820E-3,5C000400,-0724,0835,12028,029.9,045.5,0.252,751.2,01.17,0.508
2016-04-29 00:09:00,1809E-3,5C000400,-0724,0834,12009,029.9,045.5,0.252,751.2,01.17,0.508
2016-04-29 00:10:00,1867E-3,5C000400,-0724,0834,12096,029.9,045.5,0.252,751.2,01.17,0.508
2016-04-29 00:11:00,1751E-3,5C000400,-0724,0835,12109,029.9,045.5,0.252,751.3,01.17,0.508
2016-04-29 00:12:00,1776E-3,5C000400,-0724,0834,12008,030.0,045.5,0.252,751.3,01.17,0.508
2016-04-29 00:13:00,1918E-3,5C000400,-0724,0835,12145,030.0,045.5,0.252,751.3,01.17,0.508
2016-04-29 00:14:00,1856E-3,5C000400,-0724,0835,12248,029.9,045.5,0.252,751.3,01.17,0.508
2016-04-29 00:15:00,1857E-3,5C000400,-0724,0835,12121,029.9,045.5,0.251,751.3,01.17,0.508
2016-04-29 00:16:00,1759E-3,5C000400,-0724,0834,12157,029.9,045.5,0.251,751.3,01.17,0.508
2016-04-29 00:17:00,1830E-3,5C000400,-0724,0836,12234,029.9,045.5,0.251,751.3,01.17,0.508
2016-04-29 00:18:00,1769E-3,5C000400,-0724,0836,12145,029.9,045.5,0.251,751.3,01.17,0.508
2016-04-29 00:19:00,2004E-3,5C000400,-0724,0835,12100,029.9,045.5,0.251,751.3,01.17,0.508
2016-04-29 00:20:00,1906E-3,5C000400,-0724,0835,12069,030.0,045.5,0.251,751.3,01.17,0.508
2016-04-29 00:21:00,1960E-3,5C000400,-0724,0836,12220,029.9,045.5,0.251,751.3,01.17,0.508
2016-04-29 00:22:00,1879E-3,5C000400,-0724,0835,12177,029.9,045.5,0.251,751.2,01.17,0.508
2016-04-29 00:23:00,1788E-3,5C000400,-0724,0834,12152,029.9,045.5,0.251,751.2,01.17,0.508
2016-04-29 00:24:00,1925E-3,5C000400,-0724,0835,12213,029.9,045.5,0.252,751.3,01.17,0.508
2016-04-29 00:25:00,1771E-3,5C000400,-0724,0835,12062,029.9,045.5,0.252,751.3,01.17,0.508
2016-04-29 00:26:00,1927E-3,5C000400,-0724,0834,12120,029.9,045.5,0.252,751.2,01.17,0.508
2016-04-29 00:27:00,1846E-3,5C000400,-0724,0835,12209,029.9,045.5,0.252,751.3,01.17,0.508
2016-04-29 00:28:00,1817E-3,5C000400,-0724,0835,12185,029.9,045.5,0.252,751.3,01.17,0.508
2016-04-29 00:29:00,1888E-3,5C000400,-0724,0834,12195,029.8,045.5,0.252,751.3,01.17,0.508
2016-04-29 00:30:00,1876E-3,5C000400,-0724,0835,12301,029.9,045.5,0.252,751.3,01.17,0.508
2016-04-29 00:31:00,1966E-3,5C000400,-0724,0835,12141,029.9,045.5,0.252,751.3,01.17,0.508
2016-04-29 00:32:00,1840E-3,5C000400,-0724,0835,12184,029.9,045.5,0.252,751.3,01.17,0.508
2016-04-29 00:33:00,1810E-3,5C000400,-0724,0835,12179,029.9,045.5,0.252,751.3,01.17,0.508
2016-04-29 00:34:00,1835E-3,5C000400,-0724,0835,12261,029.9,045.5,0.252,751.3,01.17,0.508
2016-04-29 00:35:00,1831E-3,5C000400,-0724,0835,12079,029.9,045.5,0.252,751.3,01.17,0.508
2016-04-29 00:36:00,1897E-3,5C000400,-0724,0835,11979,030.0,045.5,0.252,751.2,01.17,0.508
2016-04-29 00:37:00,1937E-3,5C000400,-0724,0834,12152,029.9,045.5,0.252,751.2,01.17,0.508
2016-04-29 00:38:00,1967E-3,5C000400,-0724,0835,12281,029.9,045.5,0.251,751.2,01.17,0.508
2016-04-29 00:39:00,1879E-3,5C000400,-0724,0835,12141,029.9,045.5,0.251,751.2,01.17,0.508
2016-04-29 00:40:00,1974E-3,5C000400,-0724,0834,12040,029.8,045.5,0.251,751.3,01.17,0.508
2016-04-29 00:41:00,1863E-3,5C000400,-0724,0835,12111,029.9,045.5,0.251,751.2,01.17,0.508
2016-04-29 00:42:00,1794E-3,5C000400,-0724,0835,12018,029.9,045.5,0.251,751.2,01.17,0.508
2016-04-29 00:43:00,1820E-3,5C000400,-0724,0835,12228,029.9,045.5,0.251,751.3,01.17,0.508
2016-04-29 00:44:00,1803E-3,5C000400,-0724,0835,12277,029.9,045.5,0.251,751.3,01.17,0.508
2016-04-29 00:45:00,1860E-3,5C000400,-0724,0835,12047,029.9,045.5,0.252,751.2,01.17,0.508
2016-04-29 00:46:00,1861E-3,5C000400,-0724,0835,12133,029.8,045.5,0.252,751.2,01.17,0.508
2016-04-29 00:47:00,1913E-3,5C000400,-0724,0834,12105,029.8,045.5,0.252,751.3,01.17,0.508
2016-04-29 00:48:00,1882E-3,5C000400,-0724,0835,12040,029.8,045.5,0.252,751.3,01.17,0.508
2016-04-29 00:49:00,1759E-3,5C000400,-0724,0834,12203,029.8,045.5,0.252,751.3,01.17,0.508
2016-04-29 00:50:00,1837E-3,5C000400,-0724,0835,12175,029.8,045.5,0.252,751.3,01.17,0.508
2016-04-29 00:51:00,1992E-3,5C000400,-0724,0835,12233,029.8,045.5,0.252,751.3,01.17,0.508
2016-04-29 00:52:00,1983E-3,5C000400,-0724,0835,12076,029.8,045.5,0.252,751.2,01.17,0.508
2016-04-29 00:53:00,1929E-3,5C000400,-0724,0835,12169,029.8,045.5,0.252,751.2,01.17,0.508
2016-04-29 00:54:00,1867E-3,5C000400,-0724,0834,12150,029.8,045.5,0.252,751.1,01.17,0.508
2016-04-29 00:55:00,1844E-3,5C000400,-0724,0835,12213,029.8,045.5,0.252,751.2,01.17,0.508
2016-04-29 00:56:00,1818E-3,5C000400,-0724,0834,12130,029.8,045.5,0.252,751.2,01.17,0.508
2016-04-29 00:57:00,1836E-3,5C000400,-0724,0835,12155,029.8,045.5,0.252,751.0,01.17,0.508
2016-04-29 00:58:00,1971E-3,5C000400,-0724,0834,12254,029.7,045.5,0.252,751.1,01.17,0.508
2016-04-29 00:59:00,1808E-3,5C000400,-0724,0836,12312,029.8,045.5,0.251,751.1,01.17,0.508
2016-04-29 01:00:00,1871E-3,5C000400,-0724,0836,12268,029.7,045.5,0.251,751.1,01.17,0.508
2016-04-29 01:01:00,1928E-3,5C000400,-0724,0835,12145,029.8,045.5,0.251,751.2,01.17,0.508
2016-04-29 01:02:00,1888E-3,5C000400,-0724,0834,12057,029.7,045.5,0.251,751.2,01.17,0.508
2016-04-29 01:03:00,1850E-3,5C000400,-0724,0835,12175,029.7,045.5,0.251,751.2,01.17,0.508
2016-04-29 01:04:00,1902E-3,5C000400,-0724,0835,12024,029.8,045.5,0.252,751.2,01.17,0.508
2016-04-29 01:05:00,1866E-3,5C000400,-0724,0835,12194,029.7,045.5,0.252,751.2,01.17,0.508
2016-04-29 01:06:00,1915E-3,5C000400,-0724,0835,12276,029.7,045.5,0.252,751.2,01.17,0.508
2016-04-29 01:07:00,1941E-3,5C000400,-0724,0835,12229,029.7,045.5,0.252,751.2,01.17,0.508
2016-04-29 01:08:00,1874E-3,5C000400,-0724,0835,12014,029.7,045.5,0.252,751.2,01.17,0.508
2016-04-29 01:09:00,1836E-3,5C000400,-0724,0835,12036,029.7,045.5,0.252,751.1,01.17,0.508
2016-04-29 01:10:00,1851E-3,5C000400,-0724,0835,12130,029.7,045.5,0.252,751.2,01.17,0.508
2016-04-29 01:11:00,1903E-3,5C000400,-0724,0835,12111,029.7,045.5,0.252,751.2,01.17,0.508
2016-04-29 01:12:00,1937E-3,5C000400,-0724,0834,12197,029.6,045.5,0.252,751.1,01.17,0.508
2016-04-29 01:13:00,1974E-3,5C000400,-0724,0834,12149,029.6,045.5,0.252,751.1,01.17,0.508
2016-04-29 01:14:00,1829E-3,5C000400,-0724,0836,12200,029.6,045.5,0.252,751.1,01.17,0.508
2016-04-29 01:15:00,1865E-3,5C000400,-0724,0835,12153,029.6,045.5,0.252,751.2,01.17,0.508
2016-04-29 01:16:00,1860E-3,5C000400,-0724,0834,12228,029.7,045.5,0.252,751.1,01.17,0.508
2016-04-29 01:17:00,1907E-3,5C000400,-0724,0835,12106,029.7,045.5,0.252,751.1,01.17,0.508
2016-04-29 01:18:00,1930E-3,5C000400,-0724,0835,12237,029.7,045.5,0.252,751.2,01.17,0.508
2016-04-29 01:19:00,1830E-3,5C000400,-0724,0834,12028,029.7,045.5,0.252,751.1,01.17,0.508
2016-04-29 01:20:00,1880E-3,5C000400,-0724,0835,12123,029.8,045.5,0.252,751.1,01.17,0.508
2016-04-29 01:21:00,1807E-3,5C000400,-0724,0835,12162,029.7,045.5,0.252,751.2,01.17,0.508
2016-04-29 01:22:00,1845E-3,5C000400,-0724,0835,12106,029.7,045.5,0.252,751.1,01.17,0.508
2016-04-29 01:23:00,1863E-3,5C000400,-0724,0836,12130,029.7,045.5,0.252,751.2,01.17,0.508
2016-04-29 01:24:00,1855E-3,5C000400,-0724,0834,12289,029.7,045.5,0.252,751.2,01.17,0.508
2016-04-29 01:25:00,1954E-3,5C000400,-0724,0835,12132,029.7,045.5,0.252,751.2,01.17,0.508
2016-04-29 01:26:00,1906E-3,5C000400,-0724,0835,12188,029.7,045.5,0.252,751.2,01.17,0.508
2016-04-29 01:27:00,1907E-3,5C000400,-0724,0834,12232,029.7,045.5,0.252,751.1,01.17,0.508
2016-04-29 01:28:00,1859E-3,5C000400,-0724,0835,12174,029.7,045.5,0.252,751.2,01.17,0.508
2016-04-29 01:29:00,1949E-3,5C000400,-0724,0835,12199,029.7,045.5,0.252,751.1,01.17,0.508
2016-04-29 01:30:00,1861E-3,5C000400,-0724,0835,12137,029.7,045.5,0.252,751.2,01.17,0.508
2016-04-29 01:31:00,1919E-3,5C000400,-0724,0835,12274,029.7,045.5,0.252,751.2,01.17,0.508
2016-04-29 01:32:00,1783E-3,5C000400,-0724,0835,12173,029.7,045.5,0.252,751.1,01.17,0.508
2016-04-29 01:33:00,2025E-3,5C000400,-0724,0835,12077,029.6,045.5,0.252,751.1,01.17,0.508
2016-04-29 01:34:00,1825E-3,5C000400,-0724,0834,12007,029.6,045.5,0.252,751.1,01.17,0.508
2016-04-29 01:35:00,1820E-3,5C000400,-0724,0835,12018,029.6,045.5,0.252,751.1,01.17,0.508
2016-04-29 01:36:00,1813E-3,5C000400,-0724,0835,12232,029.6,045.5,0.252,751.2,01.17,0.508
2016-04-29 01:37:00,1888E-3,5C000400,-0724,0834,12181,029.6,045.5,0.252,751.2,01.17,0.508
2016-04-29 01:38:00,1793E-3,5C000400,-0724,0834,12134,029.6,045.5,0.252,751.0,01.17,0.508
2016-04-29 01:39:00,1842E-3,5C000400,-0724,0835,12017,029.6,045.5,0.252,751.1,01.17,0.508
2016-04-29 01:40:00,1873E-3,5C000400,-0724,0835,12188,029.6,045.5,0.252,751.1,01.17,0.508
2016-04-29 01:41:00,1830E-3,5C000400,-0724,0834,12053,029.6,045.5,0.252,751.1,01.17,0.508
2016-04-29 01:42:00,1809E-3,5C000400,-0724,0835,12114,029.6,045.5,0.252,751.1,01.17,0.508
2016-04-29 01:43:00,1901E-3,5C000400,-0724,0835,12206,029.6,045.5,0.252,751.1,01.17,0.508
2016-04-29 01:44:00,1851E-3,5C000400,-0724,0835,12119,029.5,045.5,0.252,751.1,01.17,0.508
2016-04-29 01:45:00,1881E-3,5C000400,-0724,0835,12315,029.6,045.5,0.252,751.1,01.17,0.508
2016-04-29 01:46:00,1963E-3,5C000400,-0724,0835,12058,029.6,045.5,0.252,751.1,01.17,0.508
2016-04-29 01:47:00,1864E-3,5C000400,-0724,0835,12055,029.6,045.5,0.252,751.0,01.17,0.508
2016-04-29 01:48:00,1771E-3,5C000400,-0724,0835,12145,029.6,045.5,0.252,751.0,01.17,0.508
2016-04-29 01:49:00,2013E-3,5C000400,-0724,0835,12216,029.6,045.5,0.252,751.0,01.17,0.508
2016-04-29 01:50:00,1912E-3,5C000400,-0724,0835,12078,029.5,045.5,0.252,751.0,01.17,0.508
2016-04-29 01:51:00,1864E-3,5C000400,-0724,0834,12149,029.5,045.5,0.252,751.0,01.17,0.508
2016-04-29 01:52:00,1826E-3,5C000400,-0724,0834,12214,029.5,045.5,0.252,750.9,01.17,0.508
2016-04-29 01:53:00,1922E-3,5C000400,-0724,0835,12128,029.5,045.5,0.252,751.0,01.17,0.508
2016-04-29 01:54:00,2064E-3,5C000400,-0724,0834,12133,029.5,045.5,0.252,751.0,01.17,0.508
2016-04-29 01:55:00,1852E-3,5C000400,-0724,0834,12206,029.5,045.5,0.252,751.0,01.17,0.508
2016-04-29 01:56:00,1825E-3,5C000400,-0724,0835,12093,029.5,045.5,0.252,751.0,01.17,0.508
2016-04-29 01:57:00,1893E-3,5C000400,-0724,0835,12025,029.5,045.5,0.252,751.0,01.17,0.508
2016-04-29 01:58:00,1931E-3,5C000400,-0724,0835,11929,029.6,045.5,0.252,751.0,01.17,0.508
2016-04-29 01:59:00,1929E-3,5C000400,-0724,0835,12169,029.5,045.5,0.252,751.0,01.17,0.508
2016-04-29 02:00:00,1879E-3,5C000400,-0724,0835,11968,029.5,045.5,0.252,751.0,01.17,0.508
2016-04-29 02:01:00,1797E-3,5C000400,-0724,0835,12062,029.5,045.5,0.252,751.0,01.17,0.508
2016-04-29 02:02:00,1866E-3,5C000400,-0724,0834,12225,029.5,045.5,0.252,750.9,01.17,0.508
2016-04-29 02:03:00,2041E-3,5C000400,-0724,0835,12019,029.5,045.5,0.252,751.0,01.17,0.508
2016-04-29 02:04:00,1880E-3,5C000400,-0724,0835,12035,029.5,045.5,0.252,751.0,01.17,0.508
2016-04-29 02:05:00,2009E-3,5C000400,-0724,0835,12174,029.4,045.5,0.252,750.8,01.17,0.508
2016-04-29 02:06:00,1869E-3,5C000400,-0724,0835,12071,029.5,045.5,0.252,750.9,01.17,0.508
2016-04-29 02:07:00,1931E-3,5C000400,-0724,0834,12190,029.4,045.5,0.252,750.9,01.17,0.508
2016-04-29 02:08:00,1919E-3,5C000400,-0724,0835,12287,029.5,045.5,0.253,750.9,01.17,0.508
2016-04-29 02:09:00,1965E-3,5C000400,-0724,0834,12116,029.5,045.5,0.253,750.9,01.17,0.508
2016-04-29 02:10:00,1889E-3,5C000400,-0724,0834,12085,029.5,045.5,0.252,750.8,01.17,0.508
2016-04-29 02:11:00,1913E-3,5C000400,-0724,0835,12121,029.5,045.5,0.252,750.8,01.17,0.508
2016-04-29 02:12:00,1855E-3,5C000400,-0724,0835,12332,029.5,045.5,0.252,750.9,01.17,0.508
2016-04-29 02:13:00,1811E-3,5C000400,-0724,0834,12136,029.5,045.5,0.252,750.9,01.17,0.508
2016-04-29 02:14:00,1937E-3,5C000400,-0724,0835,12133,029.5,045.5,0.252,751.0,01.17,0.508
2016-04-29 02:15:00,1761E-3,5C000400,-0724,0835,12078,029.5,045.5,0.252,750.9,01.17,0.508
2016-04-29 02:16:00,1928E-3,5C000400,-0724,0835,12122,029.5,045.5,0.252,750.8,01.17,0.508
2016-04-29 02:17:00,1925E-3,5C000400,-0724,0835,12207,029.5,045.5,0.252,750.8,01.17,0.508
2016-04-29 02:18:00,1910E-3,5C000400,-0724,0835,12179,029.5,045.5,0.252,750.8,01.17,0.508
2016-04-29 02:19:00,1801E-3,5C000400,-0724,0834,12096,029.5,045.5,0.252,750.9,01.17,0.508
2016-04-29 02:20:00,1960E-3,5C000400,-0724,0835,12139,029.5,045.5,0.252,750.8,01.17,0.508
2016-04-29 02:21:00,1854E-3,5C000400,-0724,0835,12092,029.5,045.5,0.252,750.8,01.17,0.508
2016-04-29 02:22:00,1855E-3,5C000400,-0724,0835,12042,029.4,045.5,0.252,750.8,01.17,0.508
2016-04-29 02:23:00,1940E-3,5C000400,-0724,0835,12188,029.5,045.5,0.252,750.7,01.17,0.508
2016-04-29 02:24:00,1926E-3,5C000400,-0724,0835,12137,029.5,045.5,0.252,750.8,01.17,0.508
2016-04-29 02:25:00,1942E-3,5C000400,-0724,0835,12212,029.5,045.5,0.252,750.7,01.17,0.508
2016-04-29 02:26:00,1880E-3,5C000400,-0724,0834,12169,029.5,045.5,0.252,750.7,01.17,0.508
2016-04-29 02:27:00,1909E-3,5C000400,-0724,0835,12034,029.5,045.5,0.252,750.7,01.17,0.508
2016-04-29 02:28:00,2013E-3,5C000400,-0724,0835,12190,029.4,045.5,0.252,750.8,01.17,0.508
2016-04-29 02:29:00,2076E-3,5C000400,-0724,0834,12155,029.5,045.5,0.252,750.8,01.17,0.508
2016-04-29 02:30:00,1795E-3,5C000400,-0724,0835,12171,029.5,045.5,0.252,750.7,01.17,0.508
2016-04-29 02:31:00,1780E-3,5C000400,-0724,0833,12062,029.5,045.5,0.252,750.7,01.17,0.508
2016-04-29 02:32:00,1876E-3,5C000400,-0724,0834,12222,029.5,045.5,0.252,750.8,01.17,0.508
2016-04-29 02:33:00,1861E-3,5C000400,-0724,0834,12121,029.5,045.5,0.252,750.7,01.17,0.508
2016-04-29 02:34:00,1879E-3,5C000400,-0724,0835,12203,029.5,045.5,0.252,750.8,01.17,0.508
2016-04-29 02:35:00,1752E-3,5C000400,-0724,0834,12112,029.5,045.5,0.252,750.7,01.17,0.508
2016-04-29 02:36:00,2047E-3,5C000400,-0724,0834,12171,029.4,045.5,0.252,750.8,01.17,0.508
2016-04-29 02:37:00,1945E-3,5C000400,-0724,0834,12108,029.4,045.5,0.252,750.7,01.17,0.508
2016-04-29 02:38:00,1874E-3,5C000400,-0724,0834,12109,029.4,045.5,0.252,750.7,01.17,0.508
2016-04-29 02:39:00,1884E-3,5C000400,-0724,0834,12112,029.4,045.5,0.252,750.7,01.17,0.508
2016-04-29 02:40:00,1764E-3,5C000400,-0724,0835,12131,029.4,045.5,0.252,750.7,01.17,0.508
2016-04-29 02:41:00,2072E-3,5C000400,-0724,0834,12176,029.5,045.5,0.252,750.7,01.17,0.508
2016-04-29 02:42:00,1909E-3,5C000400,-0724,0835,12217,029.4,045.5,0.252,750.7,01.17,0.508
2016-04-29 02:43:00,1832E-3,5C000400,-0724,0835,12029,029.4,045.5,0.252,750.6,01.17,0.508
2016-04-29 02:44:00,1945E-3,5C000400,-0724,0834,12035,029.4,045.5,0.252,750.6,01.17,0.508
2016-04-29 02:45:00,1887E-3,5C000400,-0724,0835,12223,029.5,045.5,0.252,750.7,01.17,0.508
2016-04-29 02:46:00,1928E-3,5C000400,-0724,0835,12227,029.5,045.5,0.252,750.6,01.17,0.508
2016-04-29 02:47:00,1876E-3,5C000400,-0724,0834,12259,029.5,045.5,0.252,750.6,01.17,0.508
2016-04-29 02:48:00,1812E-3,5C000400,-0724,0835,12094,029.4,045.5,0.252,750.7,01.17,0.508
2016-04-29 02:49:00,1770E-3,5C000400,-0724,0835,12155,029.4,045.5,0.252,750.7,01.17,0.508
2016-04-29 02:50:00,1968E-3,5C000400,-0724,0834,12318,029.4,045.5,0.252,750.7,01.17,0.508
2016-04-29 02:51:00,1846E-3,5C000400,-0724,0835,12007,029.4,045.5,0.252,750.8,01.17,0.508
2016-04-29 02:52:00,1919E-3,5C000400,-0724,0834,12244,029.4,045.5,0.252,750.7,01.17,0.508
2016-04-29 02:53:00,1815E-3,5C000400,-0724,0835,12280,029.4,045.5,0.252,750.7,01.17,0.508
2016-04-29 02:54:00,1777E-3,5C000400,-0724,0834,12191,029.4,045.5,0.252,750.8,01.17,0.508
2016-04-29 02:55:00,1844E-3,5C000400,-0724,0834,12163,029.4,045.5,0.252,750.8,01.17,0.508
2016-04-29 02:56:00,1764E-3,5C000400,-0724,0834,12311,029.4,045.5,0.252,750.7,01.17,0.508
2016-04-29 02:57:00,1787E-3,5C000400,-0724,0835,12148,029.4,045.5,0.252,750.8,01.17,0.508
2016-04-29 02:58:00,1865E-3,5C000400,-0724,0835,12164,029.5,045.5,0.252,750.8,01.17,0.508
2016-04-29 02:59:00,1990E-3,5C000400,-0724,0834,12158,029.5,045.5,0.252,750.8,01.17,0.508
2016-04-29 03:00:00,1861E-3,5C000400,-0724,0835,12189,029.4,045.5,0.252,750.7,01.17,0.508
2016-04-29 03:01:00,1806E-3,5C000400,-0724,0835,12204,029.4,045.5,0.252,750.7,01.17,0.508
2016-04-29 03:02:00,1866E-3,5C000400,-0724,0834,12288,029.4,045.5,0.252,750.7,01.17,0.508
2016-04-29 03:03:00,1802E-3,5C000400,-0724,0834,11987,029.5,045.5,0.252,750.6,01.17,0.508
2016-04-29 03:04:00,1892E-3,5C000400,-0724,0835,12073,029.4,045.5,0.252,750.7,01.17,0.508
2016-04-29 03:05:00,1828E-3,5C000400,-0724,0835,12083,029.4,045.5,0.252,750.6,01.17,0.508
2016-04-29 03:06:00,1939E-3,5C000400,-0724,0835,12155,029.4,045.5,0.252,750.6,01.17,0.508
2016-04-29 03:07:00,1967E-3,5C000400,-0724,0835,12182,029.4,045.5,0.252,750.7,01.17,0.508
2016-04-29 03:08:00,1883E-3,5C000400,-0724,0835,12342,029.4,045.5,0.253,750.7,01.17,0.508
2016-04-29 03:09:00,1971E-3,5C000400,-0724,0835,12038,029.4,045.5,0.253,750.6,01.17,0.508
2016-04-29 03:10:00,1882E-3,5C000400,-0724,0834,12098,029.4,045.5,0.253,750.7,01.17,0.508
2016-04-29 03:11:00,1962E-3,5C000400,-0724,0834,12189,029.4,045.5,0.253,750.8,01.17,0.508
2016-04-29 03:12:00,1822E-3,5C000400,-0724,0835,12209,029.4,045.5,0.253,750.7,01.17,0.508
2016-04-29 03:13:00,1768E-3,5C000400,-0724,0834,12261,029.4,045.5,0.253,750.7,01.17,0.508
2016-04-29 03:14:00,1981E-3,5C000400,-0724,0835,12111,029.4,045.5,0.253,750.7,01.17,0.508
2016-04-29 03:15:00,1733E-3,5C000400,-0724,0834,12181,029.4,045.5,0.253,750.7,01.17,0.508
2016-04-29 03:16:00,1854E-3,5C000400,-0724,0835,12064,029.4,045.5,0.252,750.7,01.17,0.508
2016-04-29 03:17:00,2103E-3,5C000400,-0724,0834,12100,029.4,045.5,0.252,750.7,01.17,0.508
2016-04-29 03:18:00,1929E-3,5C000400,-0724,0834,12164,029.4,045.5,0.253,750.7,01.17,0.508
2016-04-29 03:19:00,1862E-3,5C000400,-0724,0834,12036,029.5,045.5,0.252,750.8,01.17,0.508
2016-04-29 03:20:00,1910E-3,5C000400,-0724,0835,12113,029.4,045.5,0.253,750.8,01.17,0.508
2016-04-29 03:21:00,1904E-3,5C000400,-0724,0835,12198,029.4,045.5,0.252,750.7,01.17,0.508
2016-04-29 03:22:00,1897E-3,5C000400,-0724,0835,12034,029.4,045.5,0.252,750.7,01.17,0.508
2016-04-29 03:23:00,1829E-3,5C000400,-0724,0834,12155,029.4,045.5,0.252,750.7,01.17,0.508
2016-04-29 03:24:00,1992E-3,5C000400,-0724,0835,12078,029.4,045.5,0.252,750.8,01.17,0.508
2016-04-29 03:25:00,1726E-3,5C000400,-0724,0834,12059,029.4,045.5,0.252,750.7,01.17,0.508
2016-04-29 03:26:00,1849E-3,5C000400,-0724,0835,12155,029.4,045.5,0.252,750.7,01.17,0.508
2016-04-29 03:27:00,1809E-3,5C000400,-0724,0834,12187,029.4,045.5,0.252,750.7,01.17,0.508
2016-04-29 03:28:00,1899E-3,5C000400,-0724,0835,12137,029.3,045.5,0.252,750.7,01.17,0.508
2016-04-29 03:29:00,1953E-3,5C000400,-0724,0834,12156,029.4,045.5,0.252,750.7,01.17,0.508
2016-04-29 03:30:00,1824E-3,5C000400,-0724,0835,12263,029.3,045.5,0.252,750.7,01.17,0.508
2016-04-29 03:31:00,1890E-3,5C000400,-0724,0835,12048,029.3,045.5,0.252,750.7,01.17,0.508
2016-04-29 03:32:00,1870E-3,5C000400,-0724,0835,12204,029.3,045.5,0.252,750.7,01.17,0.508
2016-04-29 03:33:00,1909E-3,5C000400,-0724,0834,12133,029.3,045.5,0.252,750.7,01.17,0.508
2016-04-29 03:34:00,1792E-3,5C000400,-0724,0834,12160,029.4,045.5,0.252,750.7,01.17,0.508
2016-04-29 03:35:00,1934E-3,5C000400,-0724,0833,12113,029.3,045.5,0.252,750.7,01.17,0.508
2016-04-29 03:36:00,1919E-3,5C000400,-0724,0835,12249,029.3,045.4,0.252,750.7,01.17,0.508
2016-04-29 03:37:00,1998E-3,5C000400,-0724,0835,11942,029.3,045.5,0.252,750.8,01.17,0.508
2016-04-29 03:38:00,1796E-3,5C000400,-0724,0834,12186,029.3,045.5,0.252,750.8,01.17,0.508
2016-04-29 03:39:00,1819E-3,5C000400,-0724,0834,12183,029.3,045.5,0.253,750.8,01.17,0.508
2016-04-29 03:40:00,1811E-3,5C000400,-0724,0834,12034,029.3,045.5,0.253,750.8,01.17,0.508
2016-04-29 03:41:00,1805E-3,5C000400,-0724,0834,12033,029.3,045.5,0.253,750.8,01.17,0.508
2016-04-29 03:42:00,1866E-3,5C000400,-0724,0834,11905,029.3,045.5,0.253,750.8,01.17,0.508
2016-04-29 03:43:00,1751E-3,5C000400,-0724,0834,12119,029.3,045.5,0.253,750.8,01.17,0.508
2016-04-29 03:44:00,1816E-3,5C000400,-0724,0835,12189,029.3,045.5,0.253,750.7,01.17,0.508
2016-04-29 03:45:00,1876E-3,5C000400,-0724,0835,12051,029.2,045.5,0.253,750.7,01.17,0.508
2016-04-29 03:46:00,1841E-3,5C000400,-0724,0835,12281,029.3,045.5,0.253,750.7,01.17,0.508
2016-04-29 03:47:00,1786E-3,5C000400,-0724,0835,12081,029.2,045.5,0.253,750.7,01.17,0.508
2016-04-29 03:48:00,2016E-3,5C000400,-0724,0835,12104,029.3,045.5,0.253,750.7,01.17,0.508
2016-04-29 03:49:00,1843E-3,5C000400,-0724,0835,12077,029.3,045.5,0.253,750.8,01.17,0.508
2016-04-29 03:50:00,1832E-3,5C000400,-0724,0834,12130,029.2,045.5,0.253,750.7,01.17,0.508
2016-04-29 03:51:00,1746E-3,5C000400,-0724,0834,12152,029.3,045.5,0.253,750.7,01.17,0.508
2016-04-29 03:52:00,1923E-3,5C000400,-0724,0835,12113,029.3,045.5,0.253,750.8,01.17,0.508
2016-04-29 03:53:00,1842E-3,5C000400,-0724,0834,12147,029.3,045.5,0.253,750.7,01.17,0.508
2016-04-29 03:54:00,1832E-3,5C000400,-0724,0834,12181,029.3,045.5,0.252,750.7,01.17,0.508
2016-04-29 03:55:00,1744E-3,5C000400,-0724,0834,12195,029.2,045.5,0.252,750.7,01.17,0.508
2016-04-29 03:56:00,1732E-3,5C000400,-0724,0835,12179,029.2,045.5,0.252,750.7,01.17,0.508
2016-04-29 03:57:00,1899E-3,5C000400,-0724,0835,12037,029.3,045.5,0.252,750.7,01.17,0.508
2016-04-29 03:58:00,1889E-3,5C000400,-0724,0835,12162,029.2,045.5,0.252,750.7,01.17,0.508
2016-04-29 03:59:00,1909E-3,5C000400,-0724,0834,12120,029.3,045.5,0.252,750.7,01.17,0.508
2016-04-29 04:00:00,1984E-3,5C000400,-0724,0835,12294,029.2,045.5,0.253,750.7,01.17,0.508
2016-04-29 04:01:00,1949E-3,5C000400,-0724,0835,12109,029.2,045.5,0.253,750.7,01.17,0.508
2016-04-29 04:02:00,1917E-3,5C000400,-0724,0834,12101,029.2,045.5,0.253,750.7,01.17,0.508
2016-04-29 04:03:00,1801E-3,5C000400,-0724,0834,12115,029.2,045.5,0.253,750.7,01.17,0.508
2016-04-29 04:04:00,1858E-3,5C000400,-0724,0835,12237,029.2,045.5,0.253,750.7,01.17,0.508
2016-04-29 04:05:00,1876E-3,5C000400,-0724,0834,12136,029.3,045.5,0.253,750.7,01.17,0.508
2016-04-29 04:06:00,1897E-3,5C000400,-0724,0834,12232,029.2,045.5,0.253,750.7,01.17,0.508
2016-04-29 04:07:00,1928E-3,5C000400,-0724,0834,12204,029.2,045.5,0.253,750.7,01.17,0.508
2016-04-29 04:08:00,1893E-3,5C000400,-0724,0834,12077,029.2,045.5,0.253,750.6,01.17,0.508
2016-04-29 04:09:00,2038E-3,5C000400,-0724,0834,12089,029.2,045.5,0.253,750.6,01.17,0.508
2016-04-29 04:10:00,1940E-3,5C000400,-0724,0834,12079,029.2,045.5,0.253,750.7,01.17,0.508
2016-04-29 04:11:00,1939E-3,5C000400,-0724,0835,12091,029.2,045.5,0.252,750.7,01.17,0.508
2016-04-29 04:12:00,1882E-3,5C000400,-0724,0834,11997,029.2,045.5,0.252,750.7,01.17,0.508
2016-04-29 04:13:00,1842E-3,5C000400,-0724,0835,12032,029.2,045.5,0.253,750.7,01.17,0.508
2016-04-29 04:14:00,1718E-3,5C000400,-0724,0834,12080,029.2,045.5,0.253,750.7,01.17,0.508
2016-04-29 04:15:00,1858E-3,5C000400,-0724,0835,12181,029.1,045.5,0.253,750.8,01.17,0.508
2016-04-29 04:16:00,1783E-3,5C000400,-0724,0834,12125,029.1,045.5,0.253,750.7,01.17,0.508
2016-04-29 04:17:00,1774E-3,5C000400,-0724,0835,12112,029.2,045.5,0.253,750.7,01.17,0.508
2016-04-29 04:18:00,1792E-3,5C000400,-0724,0834,12058,029.2,045.5,0.253,750.7,01.17,0.508
2016-04-29 04:19:00,1813E-3,5C000400,-0724,0834,12051,029.2,045.5,0.253,750.8,01.17,0.508
2016-04-29 04:20:00,1884E-3,5C000400,-0724,0834,12201,029.2,045.5,0.253,750.8,01.17,0.508